Location: Gleizolles
(44.4833°N, 6.7667°E)
Time: 21:04:58
(UTC+00:00)

Tiros 1 despin weight - Pass Details

Date: 25 June 2024
Orbit: 576 x 620 km, 48.2° (Epoch: 19 July)

Event Time Altitude Azimuth Distance (km) Brightness Sun altitude
Rises 10:05:23 0° 218° (SW) 2,866 ? 62.0°
Reaches altitude 10° 10:07:48 10° 210° (SSW) 1,970 ? 62.3°
Maximum altitude 10:11:56 36° 144° (SE) 989 ? 62.8°
Drops below altitude 10° 10:16:07 10° 78° (ENE) 1,989 ? 63.3°
Sets 10:18:34 0° 70° (ENE) 2,898 ? 63.6°
